Location: SAPM � Hemmingford
(45.0500°N, 73.5833°W)
Time: 20:06:26
(UTC-04:00)

Daily predictions for brighter satellites

Satellite Brightness Start Highest point End
(mag) Time Altitude Azimuth Time Altitude Azimuth Time Altitude Azimuth
ALOS 3.6 21:04:45 10° SSW 21:09:07 40° W 21:13:32 10° NNW
Cosmos 2369 Rocket 2.5 21:05:51 10° NNW 21:11:28 59° ENE 21:17:00 10° SE
CZ-4B R/B 4.4 21:09:30 10° NE 21:13:58 29° E 21:18:29 10° SSE
Cosmos 1666 4.2 21:11:53 10° NNW 21:15:32 38° W 21:19:09 10° SSW
ISS -3.4 21:12:36 10° WSW 21:15:52 83° SSE 21:19:08 10° ENE
Cosmos 1602 Rocket 3.9 21:14:54 10° SSW 21:19:22 72° W 21:23:51 10° N
USA 186 4.3 21:19:12 10° SW 21:20:49 15° W 21:22:22 10° WNW
ATLAS 3B R/B 3.2 21:13:49 10° S 21:21:05 47° ESE 21:28:12 10° NE
Cosmos 1825 Rocket 4.1 21:18:59 10° SSE 21:23:09 41° E 21:27:19 10° NNE
SL-16 R/B 4.4 21:19:58 10° WSW 21:24:57 31° NW 21:29:58 10° N
H-2A R/B 3.7 21:24:54 10° ESE 21:28:22 19° ENE 21:31:53 10° NNE
Cosmos 1812 Rocket 3.9 21:24:02 10° NNW 21:28:25 69° W 21:32:49 10° S
Tsikada Rocket 4.2 21:25:17 10° S 21:31:41 80° W 21:38:06 10° N
PSLV R/B 3.8 21:28:47 10° WSW 21:32:10 43° S 21:35:25 11° ESE
UNK 4.4 21:28:54 10° NNE 21:34:18 56° ESE 21:39:56 10° S
YAOGAN 6 3.2 21:32:00 12° SE 21:35:16 45° ENE 21:38:52 10° N
SPOT 1/Viking Rocket 3.9 21:32:17 11° SE 21:37:07 52° ENE 21:42:07 10° N
CZ-2C R/B 3.4 21:35:52 10° SW 21:37:07 13° W 21:38:24 10° WNW
SPOT 5 2.6 21:32:54 10° SSE 21:37:17 86° WSW 21:41:38 10° NNW
Terra 3.5 21:35:55 10° ESE 21:39:22 20° ENE 21:42:49 10° NNE
USA 234 3.5 21:34:48 10° ESE 21:41:17 67° NNE 21:47:48 10° NW
H-2A R/B 3.4 21:38:30 10° SSW 21:42:30 38° W 21:46:38 10° NNW
Lacrosse 4 Rocket 1.4 21:39:57 10° SSW 21:43:53 53° ESE 21:47:54 10° NE
CZ-4 SHROUD 3.8 21:41:02 10° S 21:44:09 56° W 21:47:16 10° NNW
Cosmos 2084 4.3 21:40:38 10° NNW 21:44:30 39° NE 21:48:01 13° ESE
Cosmos 2263 4.2 21:38:58 10° NNW 21:44:37 76° ENE 21:49:30 14° SSE
ERS-1 Rocket 4.4 21:40:20 10° SSW 21:44:55 35° W 21:49:32 10° NNW
Lacrosse 5 4.3 21:43:37 10° NW 21:47:26 21° N 21:51:16 10° NE
Cosmos 1515 4.0 21:45:36 10° SSW 21:49:26 69° W 21:53:18 10° N
PSLV R/B 4.0 21:47:48 10° S 21:50:48 48° W 21:53:50 10° NNW
COSMOS 2406 4.3 21:51:43 15° SE 21:55:02 25° ESE 21:59:36 10° NE
Cosmos 1066 Rocket 4.3 21:50:31 10° S 21:56:14 83° E 22:02:07 10° NNE
MetOp-A 4.3 21:52:37 10° S 21:57:57 76° WSW 22:03:20 10° NNW
Atlas Centaur 2 3.9 21:52:59 10° SW 21:58:52 26° S 22:03:24 16° SE
Envisat 3.8 21:55:16 10° S 22:00:09 48° W 22:05:06 10° NNW
Cosmos 1634 Rocket 4.1 21:54:57 10° N 22:01:08 81° W 22:07:17 10° S
USA 245 4.0 21:58:44 13° SSE 22:03:52 89° E 22:08:39 10° NNW
Cosmos 407 Rocket 3.4 21:58:43 10° SSW 22:03:57 76° ESE 22:09:11 10° NNE
Meteor 1-22 Rocket 4.3 21:58:58 10° NNW 22:04:36 87° W 22:09:46 14° S
Cosmos 1943 Rocket 2.4 21:59:24 10° NNW 22:04:56 62° ENE 22:08:55 19° SE
CZ-4C R/B 3.8 22:02:51 20° SE 22:05:30 50° ENE 22:09:22 10° N
USA 238 DEB 4.2 21:59:33 10° S 22:06:00 39° ESE 22:12:27 10° NE
USA 238 4.2 21:59:41 10° S 22:06:07 39° ESE 22:12:31 10° NE
SL-8 R/B 3.9 22:02:25 10° WNW 22:07:15 72° NNE 22:11:41 12° E
Cosmos 1900 4.3 22:04:20 10° SSW 22:09:28 78° ESE 22:14:38 10° NE
Cosmos 1953 Rocket 3.6 22:06:42 10° S 22:11:07 83° W 22:15:36 10° N
Cosmos 489 Rocket 4.5 22:05:34 10° SSW 22:11:55 82° ESE 22:18:19 10° NNE
Cosmos-2242 3.4 22:07:52 10° N 22:12:11 50° ENE 22:14:41 23° SE
SL-27 R/B 3.0 22:11:35 27° SE 22:12:44 35° ESE 22:15:50 10° NE
Cosmos 1943 3.6 22:08:46 10° SW 22:14:24 66° WNW 22:20:06 10° NNE
Cosmos 1953 2.7 22:14:48 10° N 22:18:40 46° ENE 22:20:32 26° SE
Lacrosse 5 rocket 4.3 22:18:00 10° NW 22:20:32 16° N 22:23:09 10° NE
Cosmos 2279 Rocket 4.0 22:14:38 10° N 22:20:56 85° E 22:25:44 18° S
SL-08 RB Rocket 3.6 22:19:22 21° SSE 22:22:23 89° SW 22:26:56 10° NNW
Cosmos 1954 Rocket 4.0 22:19:49 11° S 22:24:56 68° ESE 22:30:12 10° NNE
Cosmos 1932 4.4 22:20:31 10° SSW 22:26:35 63° ESE 22:32:44 10° NE
Cosmos 1346 Rocket 3.8 22:27:46 10° SSW 22:31:31 44° WNW 22:35:20 10° N
CZ-4C R/B 3.6 22:32:02 17° ESE 22:32:08 17° ESE 22:35:45 10° ENE
Cosmos 2208 Rocket 4.2 22:27:31 10° NNW 22:32:39 60° ENE 22:35:28 26° SE
Cosmos 1842 3.2 22:35:17 24° S 22:37:36 87° W 22:41:33 10° N
SeaSat 1 3.7 22:35:39 15° SSW 22:39:06 33° WSW 22:43:34 10° NW
ARGOS 3.6 22:36:49 18° S 22:40:48 56° W 22:46:10 10° NNW
SL-23 DEB 4.0 22:39:17 10° SW 22:45:04 77° SSE 22:48:39 10° ENE
CARTOSAT-1 3.5 22:45:04 33° SSE 22:47:01 87° ENE 22:51:23 10° NNW
Cosmos 1741 Rocket 4.2 22:45:26 27° S 22:48:04 53° ESE 22:53:15 10° NNE
Geosat 3.9 22:45:09 10° NNE 22:50:10 67° ESE 22:53:29 21° SSW
ISS -1.2 22:49:40 10° WNW 22:52:35 29° NNW 22:55:30 10° NE
Cosmos 2369 Rocket 4.0 22:50:46 10° NW 22:55:01 22° W 22:59:14 10° SSW
Landsat 7 4.4 22:58:24 25° SSW 23:00:55 52° W 23:05:35 10° NNW
Cosmos 1023 Rocket 4.5 22:59:56 19° SSW 23:03:46 86° WNW 23:09:04 10° NNE
Cosmos 1850 Rocket 3.9 23:01:15 27° S 23:04:10 76° ESE 23:09:23 10° NNE
Cosmos 1570 Rocket 4.2 23:00:26 10° NNW 23:05:47 68° WSW 23:08:12 33° S
Cosmos 1758 4.0 23:02:37 10° NNW 23:06:37 50° W 23:08:15 31° SSW
H-2A R/B 2.2 23:04:51 30° S 23:07:16 62° WSW 23:12:22 10° NNW
Meteor 2-5 Rocket 4.1 23:06:10 33° SSE 23:08:27 50° E 23:14:00 10° NNE
Cosmos 1140 Rocket 3.6 23:07:18 18° SSW 23:11:12 75° WNW 23:16:28 10° NNE
ATLAS 3B R/B 3.8 23:04:28 10° WSW 23:11:53 50° NW 23:19:06 10° NNE
ALOS 2 4.5 23:11:21 16° E 23:12:56 19° ENE 23:16:02 10° NNE
Cosmos 1842 Rocket 3.7 23:09:29 10° NNW 23:13:51 70° W 23:15:21 40° SSW
Spot 4 4.0 23:11:57 36° S 23:13:52 69° WSW 23:18:40 10° NNW
IGS 5A 3.9 23:12:41 36° SSW 23:14:05 55° W 23:18:11 10° NNW
Terra 2.3 23:14:42 30° SSW 23:16:44 52° W 23:21:24 10° NNW
Cosmos 1340 2.6 23:17:42 58° SE 23:18:03 61° E 23:21:48 10° NNE
NOSS 3-2 (A) 3.7 23:20:30 35° SSE 23:22:41 48° ESE 23:29:01 10° NE
Lacrosse 4 Rocket 4.1 23:20:01 10° W 23:22:56 19° NW 23:25:55 10° N
Cosmos 1544 3.2 23:19:34 10° NNW 23:23:18 67° W 23:23:55 55° SSW
USA 234 3.8 23:21:50 29° S 23:24:30 42° SW 23:30:41 10° WNW
Cosmos 1470 2.6 23:23:27 10° N 23:27:22 82° W 23:27:56 63° S
Cosmos 2278 4.3 23:24:54 10° NNW 23:30:24 49° ENE 23:32:55 29° ESE
Cosmos 1092 Rocket 4.0 23:27:08 29° SSW 23:30:34 82° W 23:36:53 10° N
Lacrosse 5 3.5 23:27:10 10° NW 23:31:43 32° NNE 23:36:15 10° E
BREEZE-M DEB (TANK) 3.5 23:29:51 10° WNW 23:31:46 30° N 23:34:02 10° ENE
H-2A R/B 4.0 23:29:24 10° NE 23:31:54 21° E 23:31:54 21° E
Cosmos 614 Rocket 4.1 23:30:46 28° SSW 23:33:30 75° WNW 23:38:45 10° NNE
Cosmos 405 Rocket 4.1 23:39:06 26° E 23:39:06 26° E 23:41:54 10° NE
COSMOS 2406 3.9 23:33:42 12° SW 23:38:59 54° WNW 23:44:38 10° NNE
Cosmos 1697 Rocket 4.4 23:38:54 10° N 23:43:35 25° NE 23:47:24 13° E
Cosmos 1076 Rocket 3.8 23:44:25 48° ESE 23:44:40 49° E 23:48:47 10° NNE
Cosmos 2221 2.3 23:42:42 10° N 23:47:02 89° E 23:47:39 65° S
Atlas Centaur 2 4.4 23:42:08 10° WSW 23:46:01 19° SSW 23:46:01 19° SSW
Cosmos 1486 Rocket 4.5 23:46:58 40° ESE 23:47:36 42° ESE 23:52:30 10° NE
Cosmos 1943 Rocket 3.9 23:44:10 10° NW 23:48:09 20° W 23:50:26 16° SW
S3M 4.2 23:42:41 10° N 23:48:51 59° ENE 23:51:06 38° SE
Cosmos 1766 Rocket 3.8 23:49:03 49° ESE 23:49:29 51° E 23:53:51 10° NNE
SL-8 R/B 4.2 23:45:08 10° WNW 23:49:39 43° SW 23:49:39 43° SW
Cosmos 2082 Rocket 3.4 23:49:20 25° ESE 23:49:42 25° ESE 23:54:13 10° NE
Cosmos 1833 Rocket 4.2 23:52:21 20° ESE 23:52:37 20° E 23:56:38 10° NE
Cosmos 1763 Rocket 4.3 23:48:15 10° N 23:53:20 43° ENE 23:55:16 31° ESE
COSMOS 2487 3.6 23:54:06 34° W 23:54:55 40° WNW 23:58:21 10° N
